📊 Raw Sensor Data
Showing records 38476 to 38500 of 84,930 total
| ID | Distance (ft) | Battery V | Battery A | Int Temp (°F) | Int Humid (%) | Ext Temp (°F) | Solar V | RSSI | SNR | Time Stamp |
|---|---|---|---|---|---|---|---|---|---|---|
| 46467 | 15.2 | 3.97 | 0 | 85 | 42 | 75 | 5.10 | -70 | 7 | 07/16/2025 01:30 PM |
| 46466 | 15.1 | 3.97 | 0 | 84 | 42 | 79 | 5.10 | -70 | 7 | 07/16/2025 01:15 PM |
| 46465 | 15.1 | 3.97 | 0 | 83 | 42 | 78 | 5.10 | -70 | 8 | 07/16/2025 01:00 PM |
| 46464 | 15.1 | 4.05 | 0 | 81 | 42 | 78 | 5.10 | -70 | 8 | 07/16/2025 12:45 PM |
| 46463 | 15.1 | 3.97 | 0 | 79 | 43 | 77 | 5.10 | -72 | 8 | 07/16/2025 12:30 PM |
| 46462 | 15.2 | 3.98 | 0 | 79 | 43 | 74 | 5.10 | -71 | 8 | 07/16/2025 12:15 PM |
| 46461 | 15.2 | 3.97 | 0 | 78 | 43 | 78 | 5.10 | -69 | 8 | 07/16/2025 12:00 PM |
| 46460 | 15.2 | 3.97 | 0 | 76 | 43 | 76 | 5.10 | -72 | 7 | 07/16/2025 11:45 AM |
| 46459 | 15.2 | 3.97 | 0 | 75 | 43 | 73 | 5.10 | -71 | 8 | 07/16/2025 11:30 AM |
| 46458 | 15.2 | 3.97 | 0 | 74 | 43 | 74 | 5.10 | -64 | 8 | 07/16/2025 11:15 AM |
| 46457 | 15.2 | 4.08 | 0 | 75 | 43 | 74 | 5.10 | -65 | 7 | 07/16/2025 11:00 AM |
| 46456 | 15.2 | 3.97 | 0 | 74 | 43 | 75 | 5.10 | -65 | 7 | 07/16/2025 10:45 AM |
| 46455 | 15.2 | 3.97 | 0 | 73 | 43 | 74 | 5.10 | -70 | 8 | 07/16/2025 10:30 AM |
| 46454 | 15.2 | 4.00 | 0 | 72 | 43 | 72 | 5.10 | -70 | 8 | 07/16/2025 10:15 AM |
| 46453 | 15.2 | 3.97 | 0 | 71 | 43 | 73 | 5.10 | -71 | 8 | 07/16/2025 10:00 AM |
| 46452 | 15.2 | 4.01 | 0 | 71 | 43 | 74 | 5.10 | -71 | 8 | 07/16/2025 09:45 AM |
| 46451 | 15.2 | 3.97 | 0 | 70 | 43 | 73 | 5.10 | -70 | 8 | 07/16/2025 09:30 AM |
| 46450 | 15.2 | 3.97 | 0 | 68 | 44 | 70 | 5.10 | -72 | 7 | 07/16/2025 09:15 AM |
| 46449 | 15.3 | 3.98 | 0 | 67 | 44 | 69 | 5.10 | -72 | 7 | 07/16/2025 09:00 AM |
| 46448 | 15.3 | 3.98 | 0 | 67 | 44 | 69 | 5.10 | -70 | 8 | 07/16/2025 08:45 AM |
| 46447 | 15.2 | 3.97 | 0 | 65 | 44 | 67 | 5.10 | -74 | 8 | 07/16/2025 08:30 AM |
| 46446 | 15.2 | 3.97 | 0 | 64 | 44 | 68 | 5.10 | -74 | 7 | 07/16/2025 08:15 AM |
| 46445 | 15.1 | 3.97 | 0 | 63 | 43 | 67 | 5.10 | -72 | 8 | 07/16/2025 08:00 AM |
| 46444 | 15.2 | 4.09 | 58 | 63 | 43 | 66 | 4.50 | -72 | 8 | 07/16/2025 07:45 AM |
| 46443 | 15.2 | 4.00 | 18 | 61 | 43 | 65 | 4.50 | -72 | 8 | 07/16/2025 07:30 AM |